Time,TemperatureF,DewpointF,PressureIn,WindDirection,WindDirectionDegrees,WindSpeedMPH,WindSpeedGustMPH,Humidity,HourlyPrecipIn,Conditions,Clouds,dailyrainin,SolarRadiationWatts/m^2,SoftwareType,DateUTC
2013-08-02 00:11:00,66.5,65.0,29.90,WSW,244,0.0,0.0,94,0.00,,,0.00,0,weatherlink.com 1.10,2013-08-02 04:11:00,
2013-08-02 00:26:00,66.0,65.0,29.90,WSW,244,0.0,0.0,95,0.00,,,0.00,0,weatherlink.com 1.10,2013-08-02 04:26:00,
2013-08-02 00:41:00,65.7,65.0,29.91,WSW,244,0.0,0.0,96,0.00,,,0.00,0,weatherlink.com 1.10,2013-08-02 04:41:00,
2013-08-02 00:56:00,65.3,64.0,29.91,WSW,244,0.0,0.0,96,0.00,,,0.00,0,weatherlink.com 1.10,2013-08-02 04:56:00,
2013-08-02 01:11:00,65.2,64.0,29.92,WSW,244,0.0,0.0,97,0.00,,,0.00,0,weatherlink.com 1.10,2013-08-02 05:11:00,
2013-08-02 01:26:00,64.9,64.0,29.91,WSW,244,0.0,0.0,96,0.00,,,0.00,0,weatherlink.com 1.10,2013-08-02 05:26:00,
2013-08-02 01:41:00,64.7,64.0,29.91,WSW,244,0.0,0.0,97,0.00,,,0.00,0,weatherlink.com 1.10,2013-08-02 05:41:00,
2013-08-02 01:56:00,64.4,64.0,29.91,WSW,244,0.0,0.0,97,0.00,,,0.00,0,weatherlink.com 1.10,2013-08-02 05:56:00,
2013-08-02 02:11:00,64.0,63.0,29.91,WSW,244,0.0,0.0,97,0.00,,,0.00,0,weatherlink.com 1.10,2013-08-02 06:11:00,
2013-08-02 02:41:00,63.4,63.0,29.90,WSW,244,0.0,0.0,97,0.00,,,0.00,0,weatherlink.com 1.10,2013-08-02 06:41:00,
2013-08-02 02:56:00,63.1,62.0,29.89,WSW,244,0.0,0.0,97,0.00,,,0.00,0,weatherlink.com 1.10,2013-08-02 06:56:00,
2013-08-02 03:11:00,62.8,62.0,29.90,WSW,244,0.0,0.0,98,0.00,,,0.00,0,weatherlink.com 1.10,2013-08-02 07:11:00,
2013-08-02 03:26:00,62.7,62.0,29.89,WSW,244,0.0,0.0,98,0.00,,,0.00,0,weatherlink.com 1.10,2013-08-02 07:26:00,
2013-08-02 03:41:00,62.5,62.0,29.89,WSW,244,0.0,0.0,98,0.00,,,0.00,0,weatherlink.com 1.10,2013-08-02 07:41:00,
2013-08-02 04:11:00,62.1,62.0,29.90,WSW,244,0.0,0.0,98,0.00,,,0.00,0,weatherlink.com 1.10,2013-08-02 08:11:00,
2013-08-02 04:26:00,62.0,62.0,29.90,WSW,244,0.0,0.0,98,0.00,,,0.00,0,weatherlink.com 1.10,2013-08-02 08:26:00,
2013-08-02 04:41:00,62.2,62.0,29.89,WSW,244,0.0,0.0,98,0.00,,,0.00,0,weatherlink.com 1.10,2013-08-02 08:41:00,
2013-08-02 04:56:00,62.2,62.0,29.90,WSW,244,0.0,0.0,98,0.00,,,0.00,0,weatherlink.com 1.10,2013-08-02 08:56:00,
2013-08-02 05:11:00,62.3,62.0,29.91,WSW,244,0.0,0.0,99,0.00,,,0.00,0,weatherlink.com 1.10,2013-08-02 09:11:00,
2013-08-02 05:26:00,62.5,62.0,29.91,WSW,244,0.0,0.0,99,0.00,,,0.00,0,weatherlink.com 1.10,2013-08-02 09:26:00,
2013-08-02 05:41:00,62.6,62.0,29.91,WSW,244,0.0,0.0,99,0.00,,,0.00,0,weatherlink.com 1.10,2013-08-02 09:41:00,
2013-08-02 05:56:00,62.5,62.0,29.91,WSW,244,0.0,1.0,99,0.00,,,0.00,0,weatherlink.com 1.10,2013-08-02 09:56:00,
2013-08-02 06:11:00,62.4,62.0,29.91,WSW,244,0.0,0.0,99,0.00,,,0.00,0,weatherlink.com 1.10,2013-08-02 10:11:00,
2013-08-02 06:26:00,62.2,62.0,29.91,WSW,244,0.0,2.0,99,0.00,,,0.00,0,weatherlink.com 1.10,2013-08-02 10:26:00,
2013-08-02 06:56:00,62.3,62.0,29.93,WSW,244,0.0,0.0,99,0.00,,,0.00,0,weatherlink.com 1.10,2013-08-02 10:56:00,
2013-08-02 07:11:00,62.4,62.0,29.94,WSW,244,0.0,0.0,99,0.00,,,0.00,9,weatherlink.com 1.10,2013-08-02 11:11:00,
2013-08-02 07:26:00,62.6,62.0,29.95,WSW,244,0.0,1.0,99,0.00,,,0.00,16,weatherlink.com 1.10,2013-08-02 11:26:00,
2013-08-02 07:41:00,62.6,62.0,29.95,WSW,244,0.0,0.0,99,0.00,,,0.00,35,weatherlink.com 1.10,2013-08-02 11:41:00,
2013-08-02 07:56:00,62.8,63.0,29.94,WSW,244,0.0,1.0,99,0.00,,,0.00,44,weatherlink.com 1.10,2013-08-02 11:56:00,
2013-08-02 08:11:00,63.4,63.0,29.95,WNW,296,3.0,4.0,99,0.00,,,0.00,56,weatherlink.com 1.10,2013-08-02 12:11:00,
2013-08-02 08:26:00,63.8,64.0,29.95,WNW,296,0.0,2.0,99,0.00,,,0.00,70,weatherlink.com 1.10,2013-08-02 12:26:00,
2013-08-02 08:41:00,64.1,64.0,29.95,WNW,296,0.0,2.0,99,0.00,,,0.00,83,weatherlink.com 1.10,2013-08-02 12:41:00,
2013-08-02 08:57:00,64.3,64.0,29.95,WNW,296,0.0,2.0,99,0.00,,,0.00,97,weatherlink.com 1.10,2013-08-02 12:57:00,
2013-08-02 09:12:00,64.7,64.0,29.96,WNW,296,1.0,3.0,99,0.00,,,0.00,100,weatherlink.com 1.10,2013-08-02 13:12:00,
2013-08-02 09:26:00,65.0,65.0,29.96,WNW,296,0.0,2.0,99,0.00,,,0.00,105,weatherlink.com 1.10,2013-08-02 13:26:00,
2013-08-02 09:42:00,65.3,65.0,29.96,WNW,296,0.0,2.0,99,0.00,,,0.00,130,weatherlink.com 1.10,2013-08-02 13:42:00,
2013-08-02 09:57:00,65.7,65.0,29.95,WNW,296,0.0,2.0,99,0.00,,,0.00,160,weatherlink.com 1.10,2013-08-02 13:57:00,
2013-08-02 10:12:00,66.1,66.0,29.96,WNW,296,0.0,2.0,99,0.00,,,0.00,192,weatherlink.com 1.10,2013-08-02 14:12:00,
2013-08-02 10:27:00,66.6,66.0,29.97,WNW,296,0.0,2.0,99,0.00,,,0.00,49,weatherlink.com 1.10,2013-08-02 14:27:00,
2013-08-02 10:42:00,67.0,67.0,29.97,WNW,296,1.0,2.0,99,0.00,,,0.00,162,weatherlink.com 1.10,2013-08-02 14:42:00,
2013-08-02 10:57:00,67.3,67.0,29.97,WNW,284,0.0,2.0,97,0.00,,,0.00,70,weatherlink.com 1.10,2013-08-02 14:57:00,
2013-08-02 11:12:00,68.2,67.0,29.97,WNW,284,0.0,1.0,96,0.00,,,0.00,88,weatherlink.com 1.10,2013-08-02 15:12:00,
2013-08-02 11:27:00,69.3,68.0,29.97,WNW,284,0.0,1.0,96,0.00,,,0.00,88,weatherlink.com 1.10,2013-08-02 15:27:00,
2013-08-02 11:42:00,70.6,69.0,29.97,WNW,284,0.0,1.0,93,0.00,,,0.00,77,weatherlink.com 1.10,2013-08-02 15:42:00,
2013-08-02 11:57:00,71.9,69.0,29.97,WNW,284,0.0,1.0,89,0.00,,,0.00,104,weatherlink.com 1.10,2013-08-02 15:57:00,
2013-08-02 12:12:00,73.3,69.0,29.97,WNW,282,0.0,2.0,86,0.00,,,0.00,155,weatherlink.com 1.10,2013-08-02 16:12:00,
2013-08-02 12:27:00,74.6,71.0,29.96,SSW,199,1.0,2.0,87,0.00,,,0.00,153,weatherlink.com 1.10,2013-08-02 16:27:00,
2013-08-02 12:42:00,76.0,70.0,29.96,SSW,199,0.0,1.0,81,0.00,,,0.00,889,weatherlink.com 1.10,2013-08-02 16:42:00,
2013-08-02 12:57:00,77.3,70.0,29.96,SW,225,0.0,3.0,78,0.00,,,0.00,905,weatherlink.com 1.10,2013-08-02 16:57:00,
2013-08-02 13:12:00,78.9,71.0,29.96,SSE,165,0.0,2.0,76,0.00,,,0.00,172,weatherlink.com 1.10,2013-08-02 17:12:00,
2013-08-02 13:27:00,78.8,71.0,29.95,NNE,31,0.0,3.0,78,0.00,,,0.00,137,weatherlink.com 1.10,2013-08-02 17:27:00,
2013-08-02 13:42:00,79.2,71.0,29.95,SE,124,0.0,3.0,77,0.00,,,0.00,1020,weatherlink.com 1.10,2013-08-02 17:42:00,
2013-08-02 13:57:00,80.5,68.0,29.95,WNW,301,0.0,4.0,65,0.00,,,0.00,689,weatherlink.com 1.10,2013-08-02 17:57:00,
2013-08-02 14:12:00,81.6,71.0,29.95,WNW,283,1.0,4.0,71,0.00,,,0.00,991,weatherlink.com 1.10,2013-08-02 18:12:00,
2013-08-02 14:28:00,82.4,69.0,29.95,SSW,205,1.0,3.0,63,0.00,,,0.00,225,weatherlink.com 1.10,2013-08-02 18:28:00,
2013-08-02 14:43:00,82.1,66.0,29.95,WSW,252,0.0,2.0,59,0.00,,,0.00,944,weatherlink.com 1.10,2013-08-02 18:43:00,
2013-08-02 14:58:00,83.3,68.0,29.94,North,355,1.0,3.0,61,0.00,,,0.00,930,weatherlink.com 1.10,2013-08-02 18:58:00,
2013-08-02 15:13:00,83.4,67.0,29.94,WNW,290,0.0,2.0,59,0.00,,,0.00,930,weatherlink.com 1.10,2013-08-02 19:13:00,
2013-08-02 15:28:00,83.4,67.0,29.94,West,276,0.0,5.0,59,0.00,,,0.00,717,weatherlink.com 1.10,2013-08-02 19:28:00,
2013-08-02 15:43:00,83.9,67.0,29.94,NNW,336,0.0,3.0,57,0.00,,,0.00,870,weatherlink.com 1.10,2013-08-02 19:43:00,
2013-08-02 15:58:00,84.2,68.0,29.94,WNW,300,0.0,5.0,58,0.00,,,0.00,687,weatherlink.com 1.10,2013-08-02 19:58:00,
2013-08-02 16:13:00,84.0,71.0,29.94,WNW,296,3.0,3.0,65,0.00,,,0.00,577,weatherlink.com 1.10,2013-08-02 20:13:00,
2013-08-02 16:28:00,84.4,67.0,29.94,WNW,302,1.0,4.0,56,0.00,,,0.00,749,weatherlink.com 1.10,2013-08-02 20:28:00,
2013-08-02 16:43:00,84.6,67.0,29.94,South,171,1.0,3.0,55,0.00,,,0.00,707,weatherlink.com 1.10,2013-08-02 20:43:00,
2013-08-02 16:58:00,84.7,68.0,29.94,WSW,257,0.0,4.0,57,0.00,,,0.00,657,weatherlink.com 1.10,2013-08-02 20:58:00,
2013-08-02 17:12:00,84.7,68.0,29.93,SW,235,2.0,2.0,57,0.00,,,0.00,622,weatherlink.com 1.10,2013-08-02 21:12:00,
2013-08-02 17:28:00,84.6,67.0,29.93,SW,236,0.0,2.0,56,0.00,,,0.00,624,weatherlink.com 1.10,2013-08-02 21:28:00,
2013-08-02 17:43:00,84.0,68.0,29.93,SW,236,0.0,1.0,59,0.00,,,0.00,250,weatherlink.com 1.10,2013-08-02 21:43:00,
2013-08-02 17:58:00,81.5,70.0,29.92,SW,236,0.0,2.0,67,0.00,,,0.00,360,weatherlink.com 1.10,2013-08-02 21:58:00,
2013-08-02 18:13:00,81.1,70.0,29.93,SW,236,0.0,1.0,68,0.00,,,0.00,125,weatherlink.com 1.10,2013-08-02 22:13:00,
2013-08-02 18:28:00,80.1,70.0,29.92,SSW,213,1.0,2.0,71,0.00,,,0.00,278,weatherlink.com 1.10,2013-08-02 22:28:00,
2013-08-02 18:43:00,80.7,71.0,29.92,SSW,213,0.0,1.0,71,0.00,,,0.00,149,weatherlink.com 1.10,2013-08-02 22:43:00,
2013-08-02 18:58:00,80.5,71.0,29.92,South,185,0.0,2.0,73,0.00,,,0.00,135,weatherlink.com 1.10,2013-08-02 22:58:00,
2013-08-02 19:13:00,79.9,70.0,29.93,South,185,0.0,1.0,71,0.00,,,0.00,116,weatherlink.com 1.10,2013-08-02 23:13:00,
2013-08-02 19:28:00,78.9,70.0,29.93,South,185,0.0,2.0,73,0.00,,,0.00,118,weatherlink.com 1.10,2013-08-02 23:28:00,
2013-08-02 19:43:00,78.7,70.0,29.93,SSE,168,0.0,1.0,74,0.00,,,0.00,93,weatherlink.com 1.10,2013-08-02 23:43:00,
2013-08-02 19:58:00,77.7,70.0,29.94,SSE,168,1.0,2.0,76,0.00,,,0.00,25,weatherlink.com 1.10,2013-08-02 23:58:00,
2013-08-02 20:13:00,76.6,69.0,29.94,SSE,163,0.0,2.0,78,0.00,,,0.00,33,weatherlink.com 1.10,2013-08-03 00:13:00,
2013-08-02 20:28:00,76.2,70.0,29.94,SSE,160,0.0,1.0,80,0.00,,,0.00,12,weatherlink.com 1.10,2013-08-03 00:28:00,
2013-08-02 20:43:00,75.4,69.0,29.94,SE,142,0.0,3.0,80,0.00,,,0.00,0,weatherlink.com 1.10,2013-08-03 00:43:00,
2013-08-02 20:58:00,74.7,69.0,29.95,SE,142,0.0,2.0,81,0.00,,,0.00,0,weatherlink.com 1.10,2013-08-03 00:58:00,
2013-08-02 21:13:00,74.2,68.0,29.95,East,82,0.0,2.0,80,0.00,,,0.00,0,weatherlink.com 1.10,2013-08-03 01:13:00,
2013-08-02 21:28:00,73.8,68.0,29.95,SSE,157,0.0,1.0,81,0.00,,,0.00,0,weatherlink.com 1.10,2013-08-03 01:28:00,
2013-08-02 21:43:00,73.2,67.0,29.96,SSE,157,0.0,1.0,82,0.00,,,0.00,0,weatherlink.com 1.10,2013-08-03 01:43:00,
2013-08-02 21:58:00,72.4,68.0,29.97,SSE,157,0.0,0.0,86,0.00,,,0.00,0,weatherlink.com 1.10,2013-08-03 01:58:00,
2013-08-02 22:13:00,71.5,68.0,29.96,SSE,156,0.0,0.0,87,0.00,,,0.00,0,weatherlink.com 1.10,2013-08-03 02:13:00,
2013-08-02 22:28:00,70.9,67.0,29.96,SSE,157,0.0,0.0,88,0.00,,,0.00,0,weatherlink.com 1.10,2013-08-03 02:28:00,
2013-08-02 22:43:00,70.4,67.0,29.97,SSE,156,0.0,0.0,89,0.00,,,0.00,0,weatherlink.com 1.10,2013-08-03 02:43:00,
2013-08-02 22:58:00,69.8,67.0,29.97,SSE,156,0.0,0.0,91,0.00,,,0.00,0,weatherlink.com 1.10,2013-08-03 02:58:00,
2013-08-02 23:13:00,69.2,67.0,29.97,SSE,157,0.0,0.0,92,0.00,,,0.00,0,weatherlink.com 1.10,2013-08-03 03:13:00,
2013-08-02 23:28:00,68.6,67.0,29.98,SSE,157,0.0,0.0,93,0.00,,,0.00,0,weatherlink.com 1.10,2013-08-03 03:28:00,
2013-08-02 23:43:00,68.1,66.0,29.98,SSE,157,0.0,0.0,93,0.00,,,0.00,0,weatherlink.com 1.10,2013-08-03 03:43:00,
2013-08-02 23:58:00,67.9,67.0,29.98,SSE,157,0.0,0.0,95,0.00,,,0.00,0,weatherlink.com 1.10,2013-08-03 03:58:00,